Temperature
21 21 20 20 19 18 20 20 21 21 21 21 21 20 19 19 19 19 19 20 20 20 20 20 20 20 20 20 20 20 20 20 20 20 19 19 19 19 19 19 19 19 19 19 19 19 19 19 19
21 21 21 20 18 19 20 20 20 21 21 21 21 20 19 18 18 19 19 19 20 20 20 20 20 19 19 19 19 19 19 19 19 19 19 19 19 19 19 19 19 19 19 19 19 19 19 19 19
21 21 21 18 19 19 20 20 20 21 21 21 20 19 18 18 18 19 19 19 19 19 19 19 19 19 19 19 19 19 19 19 19 19 19 19 19 19 19 19 19 19 19 19 19 19 19 19 19
22 21 21 19 19 19 19 19 20 21 21 20 20 19 18 17 18 19 19 19 19 19 19 19 19 19 19 19 19 19 19 19 19 19 19 19 19 19 19 19 19 19 19 19 19 19 18 18 18
22 22 19 19 19 19 19 19 20 19 19 19 19 18 17 17 18 19 19 19 19 19 19 19 19 19 19 19 19 19 19 19 19 19 19 19 19 19 19 19 19 19 19 19 19 18 18 18 18
22 20 19 19 20 19 19 19 19 18 18 18 18 18 17 17 18 18 18 18 18 18 18 18 18 18 18 18 18 18 19 19 19 19 19 19 19 19 19 19 19 18 18 18 18 18 18 18 18
22 19 19 20 19 19 19 19 18 18 17 17 18 18 17 17 17 18 18 18 18 18 18 18 18 18 18 18 18 18 18 18 18 18 19 19 19 19 19 19 18 18 18 18 18 18 18 18 18
23 19 19 19 20 19 19 19 18 18 17 17 17 17 17 17 17 18 18 18 18 18 18 17 18 18 18 18 18 18 18 18 18 18 18 18 18 18 18 18 18 18 18 18 18 18 18 18 18
22 19 19 19 19 19 19 18 18 18 17 17 17 17 17 17 17 18 18 17 17 17 17 17 17 17 17 17 17 18 18 18 18 18 18 18 18 18 18 18 18 18 18 18 18 18 18 18 18
22 19 20 19 19 18 18 18 18 18 17 17 16 16 17 17 17 17 17 17 17 17 17 17 17 17 17 17 17 17 17 18 18 18 18 18 18 18 18 18 18 18 18 18 18 18 18 18 18
20 19 19 18 18 18 18 17 17 17 16 16 16 16 17 17 17 17 16 16 16 16 16 16 16 16 16 16 17 17 17 17 17 17 17 17 17 17 17 18 18 18 18 18 18 18 18 18 18
19 19 19 19 19 19 18 17 17 17 17 16 16 17 17 17 16 16 16 16 16 16 16 15 16 16 16 16 16 16 17 17 17 17 17 17 17 17 17 17 18 18 18 18 18 18 18 18 18
19 18 18 19 19 18 18 17 17 17 17 17 17 17 17 16 16 16 16 15 15 15 15 15 15 15 15 15 16 16 16 16 16 16 17 17 17 17 17 17 17 17 18 18 18 18 18 18 18
19 18 18 18 18 18 17 17 17 17 17 17 17 16 16 16 16 15 15 15 15 15 15 15 15 15 15 15 15 15 15 16 16 16 16 16 16 17 17 17 17 17 17 17 17 18 18 18 18
19 18 18 18 18 18 18 17 17 17 17 17 16 16 16 16 15 15 15 14 14 14 14 14 14 14 14 15 15 15 15 15 15 15 16 16 16 16 17 17 17 17 17 17 17 17 18 18 18
19 18 18 18 18 18 18 17 17 17 17 16 16 16 16 15 15 15 14 14 14 14 14 14 14 14 14 14 14 14 14 14 15 15 15 15 16 16 16 16 17 17 17 17 17 17 17 18 18
19 18 18 18 18 18 17 16 16 17 16 16 16 16 15 15 15 15 14 14 14 13 13 13 13 13 13 14 14 14 14 14 14 14 15 15 15 15 16 16 16 17 17 17 17 17 17 17 17
19 18 18 18 18 17 16 16 16 16 16 16 16 15 15 15 15 14 14 14 13 13 13 13 13 13 13 13 13 13 13 14 14 14 14 14 15 15 15 15 16 16 16 17 17 17 17 17 17
20 19 18 18 18 17 16 15 15 16 15 15 15 15 15 15 15 14 14 14 13 13 13 13 13 13 13 13 13 13 13 13 13 14 14 14 14 14 15 15 15 16 16 16 16 17 16 17 17
19 18 18 18 18 17 16 15 15 15 15 15 15 15 15 15 15 14 14 14 13 13 13 13 12 12 12 12 12 12 12 13 13 13 13 13 14 14 14 15 15 15 15 16 16 16 16 16 16
19 18 18 17 17 16 16 15 15 15 15 15 15 15 15 15 14 14 14 13 13 13 13 12 12 12 12 12 12 12 12 13 13 13 13 13 13 14 14 14 14 15 15 15 15 15 16 16 16
20 19 19 17 16 15 16 14 14 14 14 14 15 15 15 15 14 14 14 13 13 13 13 12 12 12 12 12 12 12 12 12 12 12 13 13 13 13 13 14 14 14 15 15 15 15 15 15 15
19 18 18 17 16 15 15 14 14 14 14 13 14 15 15 15 14 14 14 13 13 13 13 12 12 12 12 12 12 12 12 12 12 12 12 13 13 13 13 13 14 14 14 14 15 15 15 15 15
18 16 15 14 14 15 15 14 14 13 14 14 15 15 15 15 14 14 14 13 13 13 13 12 12 12 12 12 12 12 12 12 12 12 12 12 12 13 13 13 13 14 14 14 14 15 15 15 15
17 16 15 16 14 14 15 14 14 14 14 14 15 15 15 15 14 14 14 13 13 13 12 12 12 12 12 12 12 12 12 12 12 12 12 12 12 12 13 13 13 13 13 14 14 14 14 15 15
17 16 15 16 15 14 15 14 14 15 15 16 16 16 15 15 14 14 14 13 13 13 12 12 12 12 12 12 12 12 12 12 12 12 12 12 12 12 12 13 13 13 13 13 14 14 14 14 14
17 15 15 13 15 14 14 14 14 15 15 15 15 15 15 15 15 14 14 13 13 13 12 12 12 12 12 11 11 11 11 11 11 11 11 11 12 12 12 12 12 13 13 13 13 14 14 14 14
17 14 13 14 15 15 14 14 14 15 14 13 14 15 15 15 15 14 14 14 13 13 13 12 12 12 11 11 11 11 11 11 11 11 11 11 11 11 12 12 12 12 13 13 13 13 13 14 14
17 15 13 12 13 13 14 14 14 15 14 13 14 16 16 15 15 15 14 14 13 13 13 12 12 12 11 11 11 11 11 11 11 11 11 11 11 11 12 12 12 12 12 12 13 13 13 13 13
18 16 13 15 14 12 12 13 15 14 14 15 15 16 16 15 15 15 14 14 13 13 13 12 12 12 11 11 11 11 11 11 11 11 11 11 11 11 11 12 12 12 12 12 12 12 13 13 13
Wind_Speed
6 5 3 3 4 6 5 6 3 4 4 4 6 7 7 5 3 2 2 3 4 5 6 8 8 9 9 8 8 8 8 8 8 8 7 8 7 7 6 6 5 5 4 4 4 4 4 4 4
6 3 2 4 5 5 5 6 6 5 3 2 6 7 7 6 4 2 2 1 4 6 6 7 8 8 9 8 8 8 8 8 8 7 7 7 7 6 6 5 5 5 5 4 4 3 3 3 3
4 2 3 4 4 3 2 4 4 4 8 5 5 6 5 5 5 3 2 2 4 5 5 6 8 8 8 8 8 8 8 8 8 7 7 7 7 6 6 6 5 5 5 4 4 3 2 2 2
3 3 4 6 5 2 2 4 4 4 7 8 4 6 5 5 5 4 4 4 3 2 3 5 7 7 7 8 8 8 8 8 8 8 8 7 7 7 6 7 6 6 5 5 4 3 2 1 1
3 4 5 4 3 3 3 5 5 6 5 7 6 5 4 7 7 7 6 6 4 3 3 2 2 4 5 7 8 8 8 8 8 8 8 8 8 8 7 7 7 7 6 6 5 4 3 2 1
4 4 5 3 2 2 3 5 5 7 5 6 6 4 4 6 9 7 7 6 6 5 5 6 4 3 3 4 6 8 8 9 9 10 9 9 9 9 9 8 8 7 7 6 6 5 4 3 2
4 5 4 3 2 2 3 4 5 5 6 7 5 4 3 7 8 6 6 6 7 7 6 7 7 6 5 5 6 7 9 10 10 11 11 11 10 10 10 9 9 8 8 8 7 6 6 5 4
4 5 4 2 3 1 3 3 4 6 5 5 5 5 3 5 5 6 8 8 7 7 7 8 9 9 9 8 8 8 8 8 9 10 11 11 12 11 11 11 10 10 9 9 9 8 7 6 5
4 5 3 3 4 2 2 3 4 4 6 6 6 4 3 4 5 7 8 8 7 8 6 6 7 8 9 9 8 9 9 8 8 9 11 12 10 10 10 11 12 12 11 11 10 9 8 7 5
4 4 2 1 3 5 4 4 3 4 6 5 5 7 6 7 8 9 8 8 7 7 7 5 6 7 8 7 8 8 8 8 7 7 8 9 9 10 10 11 13 14 13 12 12 11 9 7 4
5 5 4 4 5 6 4 3 3 5 5 3 3 4 6 8 8 8 7 5 5 5 7 7 6 7 7 6 7 6 6 6 7 7 8 7 7 7 8 8 10 12 12 11 10 9 7 6 4
6 4 4 4 4 4 4 4 4 4 3 2 3 3 5 7 6 6 5 5 5 6 7 7 6 6 7 7 6 5 5 5 5 7 7 5 4 4 5 5 7 8 8 7 7 6 7 6 6
5 4 4 7 9 7 8 6 5 3 3 4 5 5 5 5 4 4 4 5 5 6 7 7 6 6 6 5 5 5 5 5 6 6 6 5 3 4 3 4 6 7 8 7 5 6 6 5 5
6 7 7 6 6 4 6 3 3 2 3 5 5 5 4 4 4 4 5 6 6 7 8 7 7 6 6 5 4 5 6 6 6 6 7 6 5 4 3 4 4 5 7 7 6 6 5 5 4
7 7 5 2 3 3 5 3 1 3 4 5 4 3 3 3 4 4 4 5 6 6 7 8 8 7 7 7 6 5 6 7 5 6 7 7 6 5 4 4 4 4 7 7 5 5 4 4 4
5 5 2 3 3 3 3 1 2 3 5 4 3 2 3 3 3 4 4 5 5 6 7 7 8 9 8 7 6 6 6 6 5 6 7 7 7 6 4 4 4 5 5 4 4 4 4 4 4
2 3 3 3 4 3 4 3 3 3 5 4 2 1 2 3 4 4 5 5 5 6 6 7 8 8 9 8 6 6 6 5 5 6 6 7 7 6 4 4 4 4 4 4 5 4 4 4 4
6 5 4 4 4 4 3 3 2 3 4 4 2 2 3 4 5 6 5 6 6 6 6 7 8 8 8 7 5 5 5 4 4 4 5 6 6 6 4 3 4 4 4 4 4 4 4 4 4
5 5 3 2 2 4 4 3 3 3 3 3 3 3 4 5 5 6 6 6 6 6 7 7 8 8 7 5 5 5 5 5 5 4 5 6 5 5 3 3 3 3 4 5 5 4 4 3 3
6 6 3 2 2 3 2 2 3 3 4 5 5 4 4 5 6 6 7 6 6 7 7 7 8 8 7 5 5 4 5 5 4 4 5 6 5 5 3 3 3 3 3 4 4 4 3 3 4
3 5 5 4 3 4 3 4 3 2 2 2 3 3 4 5 6 7 7 7 7 8 8 8 8 9 8 7 5 5 4 4 4 4 5 5 6 5 4 3 3 3 3 4 5 5 5 4 4
2 2 5 6 4 1 1 4 6 4 3 4 5 5 5 6 6 6 7 8 8 8 8 7 8 8 8 7 6 6 4 4 5 5 5 6 5 5 4 3 2 2 3 4 4 5 5 5 4
3 4 5 4 4 2 0 2 7 1 5 8 7 6 6 6 6 7 7 7 7 7 7 7 8 7 7 7 6 6 5 4 5 5 6 5 5 4 4 3 2 2 2 3 4 4 5 5 5
6 7 7 6 5 2 3 4 7 5 7 5 5 6 6 6 6 7 7 6 6 7 7 7 8 8 8 8 7 6 7 7 7 7 6 5 4 4 4 3 2 2 2 3 3 4 5 5 5
7 6 5 5 4 5 2 3 8 6 7 6 6 7 7 6 6 7 7 7 7 8 8 7 8 8 8 8 8 7 7 6 6 6 6 5 4 4 5 4 3 2 2 3 2 3 4 5 5
3 7 6 3 4 5 3 5 7 4 3 4 4 4 5 6 6 6 7 7 7 8 7 7 7 7 8 8 8 7 7 5 5 5 5 5 4 4 5 4 3 3 2 2 2 2 3 3 4
5 3 5 6 1 3 6 7 7 1 2 3 4 5 6 7 7 6 6 6 6 7 7 6 7 7 7 8 7 7 7 7 7 6 5 5 5 5 6 5 4 3 3 2 1 1 2 2 3
4 8 5 4 1 4 7 6 5 6 8 7 6 7 8 7 6 6 6 5 5 5 5 5 5 6 6 7 7 6 7 7 7 6 7 7 6 6 6 6 5 4 3 2 1 1 1 2 2
4 5 5 4 4 4 4 7 6 7 7 8 9 8 8 7 7 6 5 5 5 5 5 5 6 5 6 7 7 7 7 7 7 7 7 7 6 7 6 6 5 5 4 3 1 1 1 2 2
4 6 7 4 3 4 3 7 6 7 7 7 8 7 7 6 6 5 5 5 4 5 5 5 5 5 5 6 6 7 7 7 8 8 8 8 7 7 7 6 5 5 4 3 1 1 1 1 2
Wind_Direction
140 120 93 63 47 48 25 347 351 33 47 40 51 67 78 63 60 88 326 113 132 137 160 167 169 168 169 168 166 166 166 165 162 161 159 157 159 158 156 155 156 156 154 147 139 129 116 105 94
128 118 71 59 68 51 8 351 25 37 81 102 57 55 63 53 34 28 12 104 133 144 158 170 177 177 177 178 178 178 177 176 173 171 170 169 169 171 173 173 172 170 168 162 157 146 128 112 94
131 87 79 64 67 77 12 351 19 44 44 42 62 50 55 29 357 344 326 131 134 148 163 181 186 186 186 185 187 189 189 189 189 188 187 184 184 186 187 186 186 185 182 178 175 168 155 125 91
100 55 54 66 67 32 359 332 333 8 39 30 64 63 63 26 348 352 26 76 108 110 161 195 194 195 196 196 197 200 201 201 201 200 199 198 199 200 201 198 195 197 199 197 195 196 193 179 99
65 77 61 60 52 27 5 355 22 37 41 23 47 73 47 4 18 43 48 50 56 46 35 1 237 221 217 214 212 212 212 213 213 212 211 210 212 214 214 210 208 206 207 209 207 213 219 226 249
58 67 75 84 63 22 13 7 30 39 33 19 31 75 60 11 24 32 42 45 50 47 31 20 3 344 303 260 241 231 226 225 224 223 221 220 222 222 221 220 218 217 215 215 214 222 233 242 259
99 86 102 120 101 31 23 35 36 24 36 18 5 68 63 17 19 29 42 48 48 41 32 16 2 347 331 311 286 261 246 239 235 234 232 229 228 229 228 229 226 224 225 224 223 227 238 248 256
122 100 91 112 132 93 2 54 50 36 36 14 28 61 31 359 15 46 46 43 38 36 31 16 8 2 350 333 314 301 282 265 253 245 242 239 237 236 236 235 233 230 231 234 232 233 239 246 252
90 79 125 183 168 142 29 76 58 52 56 45 45 57 42 19 39 51 44 34 27 23 16 10 3 358 351 339 331 325 311 296 282 266 256 248 242 243 243 241 240 240 238 239 237 237 240 245 251
76 106 145 128 141 129 80 74 86 70 49 43 48 42 39 43 46 48 41 29 17 6 358 359 353 348 346 342 335 331 323 311 303 292 274 257 242 239 242 245 248 248 246 244 240 239 240 241 240
74 108 116 94 117 118 104 79 50 104 59 43 62 40 38 46 45 45 35 23 7 354 355 351 344 343 340 333 329 325 321 312 305 299 287 270 253 247 248 243 250 253 253 248 242 239 230 220 216
86 60 94 120 112 94 102 106 78 69 107 92 86 70 59 51 40 29 22 9 356 357 348 341 342 343 340 337 326 318 321 317 309 301 296 280 258 243 239 240 242 241 240 236 226 218 215 213 217
87 99 68 89 87 89 88 83 96 85 96 86 80 65 59 55 36 15 10 2 356 351 344 338 334 336 334 332 327 330 317 309 306 305 302 293 267 254 246 239 240 237 232 226 218 211 209 209 214
105 98 93 84 85 83 97 81 89 125 108 87 71 58 51 43 24 13 3 354 347 343 339 334 331 333 334 326 316 311 312 307 303 298 295 291 272 259 249 245 238 235 231 228 221 213 210 210 205
97 90 72 71 89 123 110 60 85 146 109 87 65 55 49 31 21 6 344 339 335 331 330 331 331 340 332 323 314 314 307 304 296 292 291 285 272 259 251 245 241 235 230 226 220 214 202 209 209
86 97 140 220 157 162 137 196 214 134 121 108 83 50 32 2 353 338 337 335 333 331 328 327 339 337 330 322 312 309 308 305 298 298 295 290 280 266 255 248 245 237 228 216 210 204 197 210 208
105 168 201 195 183 161 158 200 205 144 137 141 138 9 347 332 330 325 326 327 326 327 325 328 331 331 328 321 314 308 307 303 303 302 299 294 286 274 256 249 251 240 226 220 221 206 192 208 210
204 200 197 198 183 145 158 195 183 150 152 167 191 273 302 312 309 314 319 321 321 323 324 326 328 329 327 322 321 317 316 313 309 302 300 299 291 283 267 249 245 235 224 220 213 202 194 201 196
158 156 168 190 139 139 174 198 210 172 167 197 227 262 288 297 300 312 316 320 322 326 331 330 329 329 334 332 330 324 319 315 313 305 308 308 302 293 274 262 248 231 224 222 210 192 190 197 163
114 127 138 85 85 118 149 252 244 204 204 212 223 245 270 294 308 315 318 323 325 323 326 326 326 325 330 324 309 291 290 292 291 300 318 319 315 307 286 256 247 234 228 219 206 186 174 187 170
106 157 176 164 74 59 74 318 260 249 209 224 237 250 270 279 292 308 316 316 324 324 324 326 323 325 326 327 321 318 313 309 322 326 324 320 320 312 302 271 249 236 220 220 212 198 184 190 192
169 196 148 135 119 285 124 287 280 242 255 251 252 262 272 283 292 303 310 315 319 317 321 323 324 326 327 333 337 335 330 318 307 309 308 314 320 319 316 307 281 256 237 227 220 207 197 185 190
135 74 94 105 120 47 38 216 289 272 256 257 251 252 261 275 288 298 302 306 312 317 325 326 329 329 333 340 342 338 330 312 308 312 318 323 324 325 326 321 305 280 252 238 227 211 197 192 188
108 70 57 51 69 327 233 189 280 233 228 247 244 245 256 273 289 298 305 315 317 323 331 334 337 333 338 344 346 347 341 335 337 335 333 330 326 329 334 325 316 295 270 250 235 216 203 202 194
73 81 30 0 3 262 252 208 254 251 228 222 230 243 255 270 283 296 307 316 319 325 332 337 340 335 340 346 348 347 344 341 339 334 334 336 334 331 329 330 319 299 280 264 244 218 213 203 199
102 125 149 211 246 286 303 246 258 264 240 221 224 239 260 272 276 284 293 301 308 317 328 335 336 334 340 346 345 346 348 346 340 335 333 331 326 319 322 326 320 307 293 276 246 225 217 204 202
117 110 153 133 183 288 287 286 303 221 243 237 244 254 261 267 276 283 294 303 307 313 320 328 333 335 340 345 345 349 351 351 346 341 340 337 335 336 343 341 339 329 316 295 252 231 224 207 203
113 139 98 110 146 294 300 287 263 250 243 243 243 247 255 266 277 286 293 300 307 308 316 334 338 335 339 346 350 352 347 348 347 351 352 348 346 346 345 344 343 339 338 330 287 240 234 203 202
114 95 103 110 147 164 292 282 231 228 226 225 234 238 246 256 267 275 285 294 304 316 330 338 341 343 346 347 347 351 349 350 352 355 350 347 347 348 346 343 342 340 336 330 307 254 245 210 200
175 163 147 150 209 172 200 270 271 243 237 222 231 240 245 251 259 269 282 298 310 319 326 330 332 337 339 341 347 350 349 353 358 356 351 350 349 348 348 347 346 345 341 336 336 283 228 207 199
Height
1527 1528 1529 1531 1533 1542 1547 1543 1536 1535 1535 1536 1535 1535 1538 1541 1544 1549 1545 1543 1545 1546 1547 1548 1549 1550 1551 1552 1553 1553 1554 1554 1554 1554 1555 1555 1555 1555 1556 1556 1556 1556 1556 1556 1556 1556 1556 1556 1556
1528 1529 1531 1532 1541 1555 1551 1543 1539 1537 1537 1537 1537 1538 1540 1542 1544 1545 1544 1544 1546 1547 1548 1549 1550 1551 1551 1552 1552 1553 1553 1554 1554 1554 1554 1554 1555 1555 1555 1555 1555 1555 1556 1556 1556 1556 1556 1556 1556
1530 1531 1533 1535 1546 1554 1551 1544 1541 1539 1539 1538 1540 1541 1543 1546 1546 1546 1546 1546 1547 1548 1549 1550 1551 1551 1551 1552 1552 1553 1553 1553 1553 1553 1554 1554 1554 1554 1554 1554 1554 1555 1555 1555 1555 1556 1556 1556 1556
1531 1533 1534 1541 1550 1549 1547 1544 1541 1540 1540 1541 1542 1545 1547 1549 1548 1548 1547 1547 1548 1549 1550 1551 1551 1551 1552 1552 1552 1552 1552 1552 1552 1553 1553 1553 1553 1553 1553 1553 1553 1554 1554 1554 1555 1555 1555 1556 1556
1532 1533 1540 1549 1550 1548 1547 1545 1543 1542 1544 1545 1544 1547 1550 1551 1550 1549 1548 1549 1549 1550 1550 1551 1551 1551 1551 1551 1551 1551 1551 1551 1551 1551 1551 1551 1552 1552 1552 1552 1552 1552 1553 1553 1554 1554 1554 1555 1555
1533 1535 1549 1555 1552 1549 1548 1547 1545 1546 1547 1547 1547 1549 1553 1553 1551 1550 1550 1550 1550 1551 1550 1551 1551 1551 1550 1550 1550 1550 1550 1550 1550 1550 1550 1550 1550 1550 1550 1551 1551 1551 1552 1552 1552 1553 1553 1554 1555
1535 1539 1550 1552 1553 1551 1549 1549 1549 1550 1550 1550 1550 1551 1554 1553 1553 1552 1551 1551 1551 1551 1551 1550 1550 1550 1549 1549 1549 1549 1548 1548 1548 1548 1548 1548 1548 1548 1549 1549 1549 1550 1550 1551 1551 1551 1552 1553 1553
1534 1540 1550 1552 1553 1553 1551 1551 1552 1552 1553 1553 1552 1554 1555 1556 1554 1553 1553 1552 1551 1551 1550 1549 1549 1548 1548 1547 1547 1547 1546 1546 1546 1546 1546 1546 1546 1547 1547 1547 1548 1548 1548 1549 1549 1550 1551 1551 1552
1535 1544 1553 1552 1552 1552 1552 1552 1554 1555 1555 1555 1555 1556 1557 1557 1555 1554 1553 1553 1552 1551 1550 1549 1548 1547 1546 1545 1544 1544 1544 1544 1544 1543 1544 1544 1544 1544 1545 1545 1545 1546 1546 1547 1548 1548 1549 1550 1550
1536 1547 1549 1548 1548 1550 1552 1553 1555 1556 1557 1558 1558 1558 1558 1557 1556 1555 1554 1553 1552 1551 1550 1548 1547 1545 1544 1543 1542 1542 1541 1541 1541 1541 1541 1541 1541 1541 1542 1542 1543 1544 1544 1545 1546 1546 1547 1548 1549
1538 1545 1547 1548 1549 1550 1552 1555 1556 1557 1559 1560 1560 1559 1559 1558 1556 1556 1555 1553 1552 1551 1549 1548 1546 1544 1542 1541 1540 1539 1538 1538 1537 1537 1537 1537 1538 1538 1539 1540 1540 1541 1542 1542 1543 1544 1545 1546 1547
1541 1546 1546 1549 1550 1551 1553 1555 1557 1558 1561 1561 1560 1560 1559 1558 1557 1556 1555 1554 1552 1550 1548 1546 1544 1542 1540 1538 1537 1536 1535 1534 1534 1534 1534 1534 1534 1535 1536 1536 1537 1538 1539 1540 1541 1541 1542 1543 1545
1544 1547 1549 1550 1551 1553 1555 1557 1558 1560 1561 1561 1561 1561 1560 1559 1558 1557 1555 1554 1552 1549 1547 1545 1542 1540 1538 1536 1534 1533 1531 1530 1530 1530 1530 1530 1530 1531 1532 1533 1534 1535 1536 1537 1538 1539 1540 1541 1542
1545 1548 1551 1552 1553 1555 1557 1559 1560 1561 1562 1562 1561 1561 1560 1559 1558 1557 1555 1553 1551 1548 1546 1543 1540 1538 1535 1533 1531 1529 1528 1527 1526 1526 1526 1526 1526 1527 1528 1529 1530 1531 1532 1534 1535 1536 1537 1538 1540
1547 1551 1554 1555 1555 1557 1558 1561 1561 1561 1562 1562 1562 1561 1561 1560 1558 1557 1555 1553 1550 1547 1544 1542 1538 1536 1533 1530 1528 1526 1524 1523 1522 1522 1522 1522 1522 1523 1523 1524 1526 1527 1529 1530 1531 1533 1534 1535 1537
1550 1555 1560 1557 1556 1557 1562 1566 1561 1561 1561 1562 1562 1561 1561 1560 1558 1557 1554 1552 1549 1546 1543 1540 1537 1533 1530 1527 1525 1523 1521 1519 1518 1518 1517 1517 1518 1518 1519 1520 1521 1523 1524 1525 1527 1529 1530 1532 1534
1554 1560 1560 1558 1556 1557 1560 1563 1561 1561 1561 1561 1562 1561 1561 1559 1558 1556 1554 1551 1548 1545 1542 1538 1535 1531 1528 1525 1522 1520 1518 1516 1515 1514 1513 1513 1513 1514 1514 1515 1516 1518 1519 1521 1522 1524 1526 1528 1530
1557 1558 1558 1558 1556 1557 1560 1562 1560 1561 1561 1561 1561 1561 1560 1559 1557 1555 1553 1550 1547 1544 1540 1537 1533 1530 1526 1523 1520 1518 1515 1513 1511 1510 1509 1509 1509 1509 1510 1511 1512 1513 1515 1516 1518 1519 1521 1524 1526
1546 1553 1557 1557 1554 1558 1560 1561 1560 1560 1561 1561 1560 1560 1559 1558 1557 1554 1552 1549 1546 1543 1539 1535 1532 1528 1524 1521 1518 1515 1512 1511 1509 1507 1506 1505 1505 1505 1506 1506 1507 1509 1510 1512 1514 1515 1517 1519 1522
1547 1555 1558 1557 1555 1558 1562 1562 1560 1559 1559 1559 1559 1559 1558 1557 1555 1553 1551 1548 1545 1541 1538 1534 1531 1527 1523 1520 1517 1514 1511 1508 1506 1504 1503 1502 1502 1502 1502 1503 1503 1504 1506 1507 1509 1511 1512 1515 1517
1550 1555 1557 1559 1559 1560 1563 1565 1561 1558 1558 1558 1558 1558 1557 1556 1554 1552 1550 1547 1544 1540 1537 1533 1530 1526 1522 1519 1516 1513 1510 1507 1504 1502 1501 1500 1499 1499 1499 1499 1499 1500 1502 1503 1504 1506 1508 1510 1513
1553 1549 1552 1557 1564 1570 1567 1578 1563 1559 1558 1557 1556 1556 1556 1555 1553 1551 1549 1546 1543 1540 1536 1533 1529 1526 1522 1518 1515 1511 1508 1505 1503 1501 1499 1498 1497 1496 1495 1495 1496 1497 1498 1499 1500 1502 1504 1506 1508
1550 1549 1553 1558 1564 1572 1570 1577 1568 1560 1559 1556 1554 1554 1554 1554 1552 1550 1548 1546 1543 1540 1536 1532 1529 1525 1522 1518 1515 1511 1508 1505 1503 1500 1498 1496 1495 1494 1493 1493 1492 1493 1494 1495 1496 1498 1499 1501 1503
1548 1554 1560 1567 1572 1580 1571 1578 1571 1563 1557 1553 1552 1552 1552 1552 1551 1550 1548 1545 1542 1539 1536 1532 1528 1525 1522 1518 1514 1511 1508 1505 1502 1499 1497 1495 1493 1492 1491 1490 1490 1490 1491 1492 1493 1494 1495 1497 1499
1552 1565 1581 1580 1588 1583 1570 1573 1568 1553 1551 1550 1550 1550 1551 1551 1550 1548 1547 1544 1541 1538 1535 1532 1528 1525 1521 1518 1515 1511 1508 1505 1502 1499 1496 1494 1492 1490 1489 1489 1488 1488 1488 1489 1490 1491 1492 1493 1495
1556 1563 1581 1586 1590 1584 1571 1572 1559 1549 1548 1548 1549 1549 1550 1549 1549 1547 1546 1544 1541 1538 1535 1532 1528 1525 1521 1518 1515 1512 1508 1505 1502 1499 1496 1494 1491 1490 1488 1487 1486 1486 1486 1486 1487 1488 1489 1490 1492
1557 1564 1566 1579 1580 1584 1577 1566 1554 1548 1547 1547 1548 1548 1548 1548 1547 1546 1545 1543 1540 1538 1535 1532 1528 1525 1522 1519 1515 1512 1508 1505 1502 1499 1496 1494 1491 1489 1487 1486 1485 1484 1484 1484 1484 1485 1486 1487 1489
1552 1561 1572 1579 1584 1588 1580 1571 1563 1550 1548 1546 1546 1546 1546 1546 1546 1545 1544 1542 1540 1538 1535 1532 1529 1526 1522 1519 1516 1512 1509 1506 1503 1500 1497 1494 1491 1489 1487 1485 1484 1483 1482 1481 1481 1482 1483 1485 1486
1557 1563 1571 1580 1581 1589 1588 1574 1549 1545 1543 1543 1543 1544 1544 1545 1545 1544 1543 1541 1539 1537 1535 1532 1529 1526 1523 1520 1516 1513 1509 1506 1503 1500 1497 1495 1492 1489 1487 1485 1483 1482 1480 1480 1480 1480 1481 1482 1484
1550 1556 1566 1574 1577 1584 1587 1574 1542 1541 1540 1540 1541 1542 1543 1543 1543 1543 1542 1540 1539 1537 1535 1532 1529 1526 1523 1520 1517 1513 1510 1507 1504 1501 1498 1495 1492 1490 1487 1485 1483 1481 1480 1479 1478 1479 1479 1480 1482